User: anonymous   Login
Location: Unspecified
(0.0000°N, 0.0000°E)
Time: 17:25:19
(UTC+00:00)
Language:

SES 6 - Orbit

View from above orbital plane
View from above orbital plane
View from above satellite
View from above satellite

Ground track
Ground track

The orbit data is extracted from the following two-line orbital elements,

1 39172U 13026A   18295.02803150 -.00000263  00000-0  00000+0 0  9999
2 39172   0.0044 295.9541 0001949 271.0158 153.0199  1.00268579 19707
Epoch (UTC): 22 October 2018 00:40:21
Eccentricity: 0.0001949
inclination: 0.0044°
perigee height: 35779 km
apogee height: 35795 km
right ascension of ascending node: 295.9541°
argument of perigee: 271.0158°
revolutions per day: 1.00268579
mean anomaly at epoch: 153.0199°
orbit number at epoch: 1970

The dashed part of the orbit path shows where the satellite is in the earth's shadow,  

DLR